Location: Makanda
(37.6176°N, 89.2090°W)
Time: 18:55:21
(UTC+00:00)

Abrixas rocket - Pass Details

Date: 23 September 2019
Orbit: 360 x 370 km, 48.4° (Epoch: 22 October)

Event Time Altitude Azimuth Distance (km) Brightness Sun altitude
Exits shadow 10:32:58 36° 232° (SW) 596 2.5 -15.0°
Maximum altitude 10:34:04 87° 145° (SE) 366 1.9 -14.8°
Drops below altitude 10° 10:37:05 10° 56° (NE) 1,345 5.9 -14.3°
Sets 10:39:07 0° 56° (NE) 2,192 7.2 -13.9°
